Wind_Speed
98 97 98 99 102 105 107 111 112 111 112 115 119 123 127 130 133 133 133 131 131 126 120 106 100 93 86 85 85 83 84 85 79 78 90 99 105 114 120 122 118 116 113
91 95 99 102 105 106 107 108 113 116 118 121 124 127 131 135 136 133 129 124 114 106 98 91 85 83 79 75 72 72 72 72 70 63 79 87 91 98 104 109 110 109 113
94 97 98 99 103 109 112 113 116 118 120 124 129 130 132 129 126 120 114 104 97 92 86 80 75 74 72 69 67 67 66 65 64 61 67 76 81 83 86 92 97 102 110
91 95 100 105 108 111 113 116 119 121 123 125 125 123 120 117 111 103 97 90 84 80 75 72 69 66 64 62 60 60 59 59 58 56 59 64 67 71 74 80 80 82 87
95 100 102 105 111 117 120 121 124 124 122 119 117 113 107 101 95 88 82 77 74 70 65 63 59 55 55 54 53 52 52 51 50 49 52 56 57 58 62 65 69 73 75
99 101 105 112 119 120 120 118 117 115 113 108 102 97 92 85 79 73 69 66 63 60 56 52 50 49 47 46 45 45 46 45 44 44 46 49 51 51 51 54 59 64 69
98 104 111 116 122 121 114 110 108 103 98 94 89 82 77 72 66 63 59 56 53 49 47 44 43 42 41 41 41 42 42 41 41 39 41 45 46 46 44 47 53 58 63
108 113 118 118 113 109 104 99 95 90 85 80 75 70 65 60 56 53 49 47 44 43 41 39 39 39 37 37 38 39 40 39 35 36 38 41 39 41 42 43 47 50 54
115 111 108 104 99 94 90 86 82 77 73 68 62 58 54 50 47 43 41 40 39 37 36 35 35 37 36 36 36 37 38 35 33 36 38 41 38 39 38 37 41 45 50
112 103 96 91 88 83 79 74 69 65 60 55 50 48 44 40 37 34 34 35 35 35 33 34 34 35 36 34 32 34 36 33 32 30 33 38 40 40 38 36 39 42 44
99 91 87 82 77 72 67 63 58 53 48 44 42 37 34 33 31 30 30 32 35 36 36 33 31 31 32 34 34 34 35 34 34 35 33 34 38 41 41 37 38 42 42
89 83 77 71 66 61 56 52 47 42 38 35 31 28 28 28 30 30 31 32 35 35 32 32 33 32 33 34 35 37 37 37 38 38 36 36 38 39 41 42 40 38 41
80 74 67 60 55 49 44 40 36 33 27 25 24 24 24 27 31 33 33 31 29 29 30 33 36 36 36 37 37 37 37 37 38 39 39 37 36 36 39 41 43 40 39
69 62 56 50 45 40 35 30 25 21 20 20 21 23 26 27 28 29 28 28 28 29 32 33 33 33 34 34 35 36 35 36 37 36 34 32 32 32 34 37 39 40 42
60 53 47 41 35 30 25 20 17 16 17 19 23 26 27 28 29 29 29 29 31 32 33 33 33 33 33 33 34 34 35 36 33 30 29 28 28 28 30 33 36 38 44
52 44 38 32 26 20 16 14 13 15 18 23 26 28 29 31 31 30 31 33 35 35 34 34 33 33 33 33 33 34 35 30 26 24 24 24 24 25 27 29 31 35 39
43 35 30 23 18 14 12 11 12 17 22 23 25 28 29 30 30 32 33 34 35 34 32 32 31 29 30 31 33 34 29 24 21 20 19 19 20 20 21 24 26 29 33
35 29 21 16 13 10 11 14 19 22 23 23 25 27 29 31 33 34 35 34 32 29 28 28 26 27 29 32 35 29 23 20 17 15 16 16 15 15 17 19 22 24 27
29 19 15 12 10 11 14 17 19 20 21 22 25 29 33 36 37 37 35 34 31 27 26 24 24 26 29 33 32 24 19 15 13 12 12 10 9 10 13 16 20 22 23
20 14 10 9 11 14 17 18 20 19 21 23 28 31 35 37 38 34 32 31 29 27 24 23 24 26 31 31 27 22 15 12 11 9 7 5 5 8 10 12 15 17 20
15 9 7 10 13 16 17 18 18 21 24 25 30 35 39 38 36 33 32 29 27 25 23 23 25 30 32 28 24 19 12 10 8 6 5 3 4 7 8 10 13 14 16
10 7 8 11 14 15 17 17 19 21 22 27 34 38 39 37 36 33 29 27 26 25 24 26 30 31 31 26 19 16 9 7 6 5 3 3 5 3 4 7 10 13 14
6 6 9 12 14 15 15 18 20 22 25 31 36 38 38 33 31 29 29 29 29 29 29 30 30 27 25 23 17 13 8 6 3 3 3 3 3 2 3 5 8 11 13
7 8 11 14 15 15 15 18 21 24 27 33 36 39 36 30 28 27 28 30 31 32 32 32 31 28 23 22 19 13 9 5 4 1 1 2 3 1 2 5 7 10 13
7 10 13 15 16 15 16 19 21 24 28 33 39 39 35 30 28 29 29 31 33 34 34 34 32 27 22 20 17 13 9 6 4 2 1 1 3 1 4 6 9 12 15
9 12 14 16 16 15 18 18 20 25 30 35 38 36 34 32 31 30 30 33 35 35 34 33 32 29 24 21 16 13 9 6 4 2 2 3 2 2 6 7 12 14 17
Wind_Direction
291 291 291 292 293 294 294 293 293 293 292 292 292 292 292 292 292 292 293 295 296 295 296 292 289 287 285 280 275 274 273 270 265 260 259 257 255 255 255 254 253 249 248
291 292 294 294 294 294 294 296 296 295 294 293 293 293 293 293 295 296 296 296 295 294 292 292 290 288 286 283 281 279 275 273 269 262 260 256 254 254 256 254 254 250 248
296 296 297 299 299 298 298 297 295 295 294 294 294 295 294 294 295 295 295 295 295 294 291 291 290 288 286 285 282 280 278 276 271 266 259 257 254 253 254 254 253 251 250
299 301 301 299 297 297 297 296 296 296 295 295 294 295 297 297 296 296 295 295 293 292 291 292 290 288 286 285 283 281 279 277 274 269 264 260 256 254 252 251 252 251 249
298 297 298 299 299 298 297 295 296 297 296 296 296 297 296 297 296 295 295 294 292 293 293 291 290 288 286 284 282 280 277 274 271 268 264 264 259 255 250 250 249 249 248
298 299 298 300 300 300 299 297 296 297 297 297 297 296 295 295 296 295 294 294 294 293 293 291 290 288 286 284 282 280 277 274 271 266 263 262 260 256 253 250 247 245 245
303 302 300 302 300 299 297 296 296 297 296 296 295 296 296 297 297 296 295 294 294 294 293 291 288 287 287 286 283 279 277 275 274 271 265 261 260 256 253 247 246 243 242
306 304 303 301 299 298 298 298 297 297 297 296 298 298 297 297 296 295 295 295 295 294 293 292 291 290 287 285 283 281 280 278 277 273 269 267 262 260 254 248 244 242 241
305 305 302 300 299 299 299 298 299 298 298 298 298 298 297 296 296 297 297 296 295 294 295 295 295 293 291 289 286 283 281 281 276 270 269 270 268 263 258 253 248 244 240
310 307 304 304 303 302 300 300 299 300 299 299 299 297 297 299 300 300 298 297 296 297 297 297 297 295 295 291 287 286 288 290 281 272 266 266 269 268 261 253 248 248 244
310 308 307 305 304 302 302 301 301 301 301 299 299 301 302 301 299 297 296 300 302 303 303 302 299 297 298 298 296 294 292 290 286 283 276 267 262 263 265 258 244 245 246
312 310 308 306 305 304 304 303 302 302 300 302 306 306 305 303 302 302 304 303 303 305 304 303 301 302 301 297 296 294 293 291 288 286 281 275 267 262 259 260 256 244 243
313 311 310 309 308 307 305 303 303 304 307 309 307 306 307 306 308 307 306 305 304 302 302 302 302 302 299 297 297 295 292 290 287 286 283 277 268 259 254 252 253 251 240
315 314 314 312 311 310 308 307 308 313 313 312 316 315 314 314 311 307 306 306 307 308 306 303 300 299 299 299 301 302 299 297 294 288 281 273 266 259 252 247 246 244 244
320 319 317 315 315 314 313 316 322 322 322 321 320 321 322 321 318 313 308 308 310 310 311 311 310 309 307 307 308 307 306 303 296 289 283 275 267 258 249 245 242 237 238
323 323 323 322 320 318 325 333 333 332 331 335 334 331 327 325 324 320 314 312 315 316 315 313 312 312 310 312 312 312 311 305 297 290 281 273 267 260 253 245 238 235 235
325 327 327 325 325 337 347 342 340 344 343 341 336 332 331 332 331 327 324 324 321 320 319 317 318 314 314 315 316 318 313 305 300 292 284 277 270 262 252 244 238 230 228
328 329 329 332 348 360 5 1 355 351 347 339 335 334 336 336 333 331 331 331 328 327 325 326 325 322 321 319 321 320 311 310 309 302 296 286 277 264 249 240 234 229 224
329 333 335 351 11 20 12 4 356 351 345 338 338 338 339 338 338 338 339 340 341 338 336 333 329 327 323 324 325 321 318 322 316 309 300 289 282 262 241 230 222 218 216
331 338 355 17 29 20 11 2 357 351 345 344 337 338 342 343 342 342 344 347 345 346 345 338 335 330 325 330 327 326 329 329 326 318 302 290 250 235 222 219 219 213 209
333 356 23 37 29 19 9 6 359 350 348 343 342 345 348 351 352 353 356 354 353 352 349 342 336 332 331 337 330 332 337 340 333 310 313 301 241 234 217 214 214 208 207
346 24 41 36 24 16 11 5 356 353 350 348 348 352 354 356 358 359 1 0 359 355 349 341 337 337 335 340 339 335 347 346 344 318 336 283 263 253 224 205 198 199 196
30 56 44 31 21 16 10 2 1 358 353 352 354 357 358 1 3 6 8 5 360 354 348 345 344 343 340 342 351 346 357 8 5 325 331 278 261 255 203 188 175 177 184
67 53 36 27 22 17 11 10 5 1 358 356 1 358 358 360 4 7 7 3 359 357 356 356 353 351 350 350 354 357 2 16 15 41 283 278 264 255 182 145 153 157 166
68 45 35 28 26 19 14 10 5 5 1 1 2 358 359 360 3 7 5 2 358 360 1 359 357 359 356 360 359 360 6 17 29 38 115 206 253 64 92 134 148 150 152
60 42 32 29 27 20 16 10 9 8 5 6 4 1 359 360 5 6 6 4 1 360 2 4 3 2 4 3 9 5 12 26 44 57 106 154 209 152 119 138 151 147 146
Height
10573 10563 10552 10541 10530 10519 10508 10496 10485 10472 10459 10447 10434 10419 10405 10392 10377 10366 10356 10345 10335 10325 10311 10303 10296 10287 10286 10281 10277 10278 10278 10278 10291 10295 10288 10283 10288 10286 10292 10306 10324 10341 10355
10549 10539 10529 10518 10506 10493 10479 10465 10451 10437 10423 10409 10395 10381 10366 10353 10340 10327 10320 10309 10298 10288 10277 10268 10263 10257 10255 10251 10249 10247 10247 10247 10253 10263 10253 10247 10253 10256 10259 10274 10289 10303 10316
10529 10517 10504 10489 10475 10462 10449 10435 10419 10404 10389 10374 10360 10347 10334 10321 10309 10296 10287 10277 10267 10257 10249 10242 10236 10233 10228 10224 10224 10221 10219 10220 10221 10229 10224 10219 10222 10232 10239 10245 10253 10266 10280
10506 10493 10479 10466 10452 10436 10421 10405 10389 10374 10360 10345 10330 10315 10301 10288 10276 10267 10256 10248 10238 10231 10225 10219 10215 10211 10206 10202 10200 10199 10198 10196 10197 10199 10197 10195 10201 10206 10214 10217 10227 10236 10248
10485 10470 10455 10440 10425 10408 10391 10374 10359 10343 10328 10313 10299 10285 10271 10259 10249 10240 10232 10224 10215 10210 10205 10201 10196 10192 10187 10183 10181 10180 10178 10177 10177 10179 10176 10173 10178 10185 10191 10200 10205 10210 10220
10461 10446 10431 10415 10395 10376 10359 10342 10326 10310 10296 10282 10270 10259 10247 10234 10227 10218 10211 10203 10196 10193 10188 10184 10180 10175 10171 10168 10166 10163 10161 10159 10159 10160 10160 10157 10159 10166 10173 10180 10185 10191 10195
10436 10419 10401 10383 10362 10342 10324 10308 10293 10280 10267 10255 10244 10234 10223 10214 10207 10199 10192 10187 10181 10177 10173 10169 10164 10161 10158 10154 10152 10149 10147 10146 10146 10148 10146 10144 10145 10150 10158 10160 10164 10170 10173
10407 10387 10368 10348 10326 10307 10291 10277 10265 10252 10240 10229 10220 10212 10204 10197 10190 10184 10178 10173 10168 10164 10160 10157 10152 10149 10148 10145 10141 10138 10136 10136 10138 10136 10133 10131 10134 10137 10141 10145 10148 10152 10158
10378 10355 10332 10313 10294 10279 10263 10250 10239 10228 10218 10210 10202 10194 10188 10183 10177 10172 10166 10161 10157 10153 10150 10146 10142 10138 10136 10133 10130 10127 10125 10126 10126 10124 10122 10120 10123 10124 10128 10132 10135 10139 10143
10341 10318 10299 10280 10265 10251 10238 10227 10216 10208 10201 10193 10187 10181 10176 10171 10166 10161 10156 10151 10147 10143 10140 10137 10134 10128 10124 10123 10121 10118 10114 10115 10114 10116 10114 10111 10109 10110 10114 10120 10122 10125 10129
10306 10287 10270 10254 10241 10228 10217 10207 10199 10193 10186 10180 10175 10171 10166 10161 10157 10153 10148 10143 10137 10133 10130 10128 10125 10120 10116 10112 10109 10108 10106 10104 10103 10102 10103 10102 10101 10099 10100 10105 10111 10112 10118
10278 10262 10246 10232 10221 10210 10201 10193 10186 10181 10176 10171 10167 10162 10157 10153 10148 10145 10140 10137 10132 10126 10122 10118 10114 10111 10109 10105 10101 10098 10096 10093 10089 10088 10088 10088 10088 10089 10089 10091 10095 10103 10107
10255 10239 10226 10214 10204 10196 10188 10182 10177 10173 10167 10164 10160 10157 10153 10148 10142 10137 10133 10129 10125 10120 10116 10112 10107 10103 10100 10096 10092 10088 10085 10081 10077 10075 10073 10073 10073 10075 10076 10079 10081 10087 10095
10237 10222 10210 10200 10191 10184 10179 10175 10170 10166 10162 10159 10156 10152 10148 10142 10137 10132 10127 10122 10118 10114 10109 10105 10100 10095 10091 10087 10082 10077 10072 10068 10064 10061 10059 10058 10058 10060 10062 10065 10069 10074 10079
10221 10209 10198 10189 10183 10178 10173 10169 10165 10162 10159 10156 10152 10147 10141 10137 10130 10125 10121 10116 10112 10107 10100 10094 10089 10085 10081 10076 10072 10066 10061 10056 10051 10048 10046 10045 10045 10046 10049 10052 10057 10062 10064
10210 10199 10190 10183 10178 10173 10169 10167 10164 10161 10157 10152 10146 10141 10136 10130 10125 10121 10115 10109 10103 10098 10092 10086 10081 10076 10071 10067 10061 10056 10051 10046 10041 10038 10036 10034 10035 10035 10037 10040 10044 10049 10054
10202 10193 10185 10179 10175 10171 10168 10166 10164 10159 10154 10150 10145 10139 10133 10127 10122 10116 10109 10103 10096 10090 10085 10079 10074 10069 10064 10059 10052 10047 10042 10037 10033 10031 10028 10027 10026 10027 10029 10030 10033 10037 10042
10196 10188 10182 10178 10174 10171 10168 10165 10162 10157 10153 10148 10143 10138 10131 10125 10118 10111 10104 10097 10090 10083 10077 10072 10068 10063 10058 10052 10045 10040 10035 10031 10029 10025 10023 10021 10021 10023 10024 10026 10027 10030 10033
10192 10185 10181 10178 10175 10172 10169 10166 10162 10158 10153 10148 10143 10136 10129 10122 10114 10106 10099 10091 10084 10078 10074 10068 10063 10058 10053 10047 10039 10035 10030 10027 10024 10022 10020 10019 10018 10019 10019 10020 10022 10025 10028
10189 10183 10181 10178 10176 10173 10169 10166 10162 10158 10153 10148 10143 10137 10130 10121 10112 10104 10096 10089 10082 10076 10071 10065 10060 10055 10048 10043 10035 10031 10028 10024 10021 10019 10018 10017 10017 10015 10016 10017 10018 10021 10025
10187 10183 10182 10179 10176 10173 10170 10166 10162 10158 10153 10148 10142 10135 10127 10118 10109 10101 10093 10087 10081 10075 10070 10063 10058 10052 10044 10040 10032 10029 10026 10022 10020 10018 10016 10016 10014 10014 10014 10016 10017 10020 10023
10187 10185 10183 10180 10177 10174 10171 10167 10163 10159 10154 10149 10142 10135 10126 10118 10109 10101 10094 10088 10082 10076 10070 10064 10057 10050 10041 10037 10032 10026 10025 10022 10020 10017 10016 10015 10014 10014 10016 10017 10018 10020 10023
10188 10187 10184 10181 10178 10175 10172 10169 10165 10160 10156 10150 10144 10136 10128 10120 10112 10104 10098 10091 10084 10078 10071 10064 10056 10049 10040 10034 10031 10026 10023 10021 10020 10018 10017 10016 10015 10016 10017 10018 10019 10021 10024
10190 10189 10186 10183 10180 10177 10174 10171 10167 10163 10157 10152 10145 10138 10129 10121 10115 10108 10101 10093 10086 10078 10070 10062 10054 10047 10040 10034 10028 10025 10023 10022 10020 10019 10018 10017 10016 10018 10019 10020 10021 10023 10027
10193 10191 10188 10185 10182 10179 10176 10173 10169 10164 10159 10154 10148 10139 10132 10125 10117 10110 10103 10096 10088 10079 10070 10062 10055 10048 10041 10036 10030 10026 10024 10022 10021 10020 10020 10019 10019 10021 10023 10023 10025 10027 10030
10196 10193 10191 10188 10185 10182 10179 10175 10172 10167 10162 10157 10151 10143 10135 10128 10120 10113 10105 10097 10090 10081 10072 10064 10055 10048 10042 10036 10032 10028 10025 10023 10022 10021 10021 10022 10022 10023 10026 10027 10029 10030 10034